Stevensville, MD

3:52 PM EST on February 20, 2017 (GMT -0500)
Stevensville

Weather History for KW29 - December, 2012

Change the Weather History Date:

Saturday, December 8, 2012

  Actual Average (KESN) Record (KESN)
Temperature  
Mean Temperature 48 °F -  
Max Temperature 50 °F 51 °F 70 °F (1966)
Min Temperature 46 °F 36 °F 20 °F (1965)
Degree Days  
Heating Degree Days 17    
Moisture  
Dew Point 49 °F    
Average Humidity 100    
Maximum Humidity 100    
Minimum Humidity 100    
Precipitation  
Precipitation 0.00 in - - ()
Sea Level Pressure  
Sea Level Pressure 29.95 in    
Wind  
Wind Speed 3 mph (South)    
Max Wind Speed 8 mph    
Max Gust Speed -    
Visibility 2 miles    
Events      
Averages and records for this station are not official NWS values.
T = Trace of Precipitation, MM = Missing Value Source: NWS Daily Summary

Daily Weather History Graph

Daily Weather History Graph

Search for Another Location

Airport or City:

Trip Planner

Search our weather history database for the weather conditions in past years. The results will help you decide how hot, cold, wet, or windy it might be!

Date:

Astronomy

Dec. 08, 2012 Rise Set
Actual Time 7:11 AM EST 4:42 PM EST
Civil Twilight 6:42 AM EST 5:12 PM EST
Nautical Twilight 6:08 AM EST 5:46 PM EST
Astronomical Twilight 5:36 AM EST 6:18 PM EST
Moon 1:36 AM EST (12/8) 1:09 PM EST (12/8)
Length of Visible Light 10h 30m
Length of Day
9h 30m
Waning Crescent, 28% of the Moon is Illuminated
Dec 8
Waning Crescent
Dec 13
New
Dec 20
First Quarter
Dec 28
Full
Jan 4
Last Quarter

Hourly Weather History & Observations

Time (EST) Temp. Windchill Dew Point Humidity Pressure Visibility Wind Dir Wind Speed Gust Speed Precip Events Conditions
12:20 AM 46.4 °F 45.2 °F 46.4 °F 100% 29.97 in 2.5 mi SSE 3.5 mph - N/A   Overcast
12:41 AM 46.4 °F 45.2 °F 46.4 °F 100% 29.97 in 5.0 mi SSE 3.5 mph - N/A   Overcast
1:03 AM 46.4 °F - 46.4 °F 100% 29.96 in 4.0 mi Calm Calm - N/A   Overcast
1:45 AM 46.4 °F - 46.4 °F 100% 29.95 in 3.0 mi Calm Calm - N/A   Overcast
2:06 AM 48.2 °F - 48.2 °F 100% 29.95 in 3.0 mi SSE 3.5 mph - N/A   Overcast
2:28 AM 48.2 °F - 48.2 °F 100% 29.95 in 2.0 mi SSE 3.5 mph - N/A   Overcast
2:49 AM 48.2 °F - 48.2 °F 100% 29.94 in 2.5 mi SSE 3.5 mph - N/A   Overcast
3:10 AM 48.2 °F - 48.2 °F 100% 29.94 in 1.2 mi Calm Calm - N/A   Overcast
3:32 AM 48.2 °F - 48.2 °F 100% 29.93 in 0.8 mi Calm Calm - N/A   Overcast
3:53 AM 46.4 °F - 46.4 °F 100% 29.93 in 0.5 mi Calm Calm - N/A   Overcast
4:14 AM 46.4 °F - 46.4 °F 100% 29.92 in 0.2 mi Calm Calm - N/A   Overcast
4:57 AM 48.2 °F - 48.2 °F 100% 29.92 in 0.5 mi Calm Calm - N/A   Overcast
5:18 AM 48.2 °F - 48.2 °F 100% 29.92 in 0.5 mi SSE 3.5 mph - N/A   Overcast
5:39 AM 48.2 °F - 48.2 °F 100% 29.92 in 1.0 mi Calm Calm - N/A   Overcast
6:01 AM 48.2 °F - 48.2 °F 100% 29.92 in 0.8 mi Calm Calm - N/A   Overcast
6:22 AM 48.2 °F - 48.2 °F 100% 29.93 in 0.5 mi Calm Calm - N/A   Overcast
6:43 AM 50.0 °F - 50.0 °F 100% 29.92 in 0.2 mi Calm Calm - N/A   Overcast
7:05 AM 50.0 °F - 50.0 °F 100% 29.93 in 1.2 mi SSW 3.5 mph - N/A   Overcast
7:26 AM 50.0 °F - 50.0 °F 100% 29.94 in 2.5 mi WSW 3.5 mph - N/A   Overcast
7:47 AM 48.2 °F - 48.2 °F 100% 29.94 in 1.5 mi Calm Calm - N/A   Overcast
8:08 AM 48.2 °F - 48.2 °F 100% 29.94 in 2.5 mi WSW 3.5 mph - N/A   Overcast
8:30 AM 48.2 °F - 48.2 °F 100% 29.95 in 2.5 mi SW 3.5 mph - N/A   Overcast
8:51 AM 48.2 °F - 48.2 °F 100% 29.95 in 2.5 mi West 3.5 mph - N/A   Overcast
9:12 AM 50.0 °F - 50.0 °F 100% 29.95 in 4.0 mi SW 3.5 mph - N/A   Overcast
9:33 AM 48.2 °F - 48.2 °F 100% 29.96 in 4.0 mi West 3.5 mph - N/A   Overcast
10:16 AM 50.0 °F - 50.0 °F 100% 29.96 in 3.0 mi Calm Calm - N/A   Overcast
10:37 AM 50.0 °F - 50.0 °F 100% 29.95 in 4.0 mi South 3.5 mph - N/A   Overcast
10:58 AM 50.0 °F - 50.0 °F 100% 29.95 in 2.0 mi WSW 3.5 mph - N/A   Overcast
11:19 AM 50.0 °F - 50.0 °F 100% 29.94 in 3.0 mi SW 3.5 mph - N/A   Overcast
11:41 AM 50.0 °F - 50.0 °F 100% 29.94 in 2.0 mi South 3.5 mph - N/A   Overcast
12:02 PM 50.0 °F - 50.0 °F 100% 29.94 in 2.5 mi South 5.8 mph - N/A   Overcast
12:23 PM 50.0 °F - 50.0 °F 100% 29.92 in 2.5 mi SSE 3.5 mph - N/A   Overcast
12:44 PM 50.0 °F - 50.0 °F 100% 29.92 in 2.5 mi South 4.6 mph - N/A   Overcast
1:06 PM 50.0 °F - 50.0 °F 100% 29.92 in 3.0 mi South 6.9 mph - N/A   Overcast
1:27 PM 50.0 °F - 50.0 °F 100% 29.92 in 5.0 mi South 5.8 mph - N/A   Overcast
1:48 PM 50.0 °F - 50.0 °F 100% 29.92 in 5.0 mi Calm Calm - N/A   Overcast
2:09 PM 50.0 °F - 50.0 °F 100% 29.91 in 4.0 mi SE 8.1 mph - N/A   Overcast
2:31 PM 50.0 °F - 50.0 °F 100% 29.92 in 4.0 mi South 5.8 mph - N/A   Overcast
2:52 PM 50.0 °F - 50.0 °F 100% 29.92 in 4.0 mi SSE 6.9 mph - N/A   Overcast
3:13 PM 50.0 °F - 50.0 °F 100% 29.92 in 4.0 mi SSE 4.6 mph - N/A   Overcast
3:34 PM 50.0 °F - 50.0 °F 100% 29.93 in 3.0 mi Calm Calm - N/A   Overcast
3:56 PM 50.0 °F - 50.0 °F 100% 29.93 in 3.0 mi Calm Calm - N/A   Overcast
4:17 PM 50.0 °F - 50.0 °F 100% 29.93 in 1.2 mi SSE 6.9 mph - N/A   Overcast
4:38 PM 50.0 °F - 50.0 °F 100% 29.93 in 1.2 mi SSE 4.6 mph - N/A   Overcast
4:59 PM 50.0 °F - 50.0 °F 100% 29.94 in 1.0 mi SSE 5.8 mph - N/A   Overcast
5:21 PM 50.0 °F - 50.0 °F 100% 29.94 in 1.8 mi SSE 8.1 mph - N/A   Overcast
5:42 PM 50.0 °F - 50.0 °F 100% 29.94 in 1.0 mi South 8.1 mph - N/A   Overcast
6:03 PM 50.0 °F - 50.0 °F 100% 29.95 in 1.0 mi South 4.6 mph - N/A   Overcast
6:24 PM 50.0 °F - 50.0 °F 100% 29.96 in 0.5 mi South 3.5 mph - N/A   Overcast
6:45 PM 50.0 °F - 50.0 °F 100% 29.97 in 0.8 mi South 3.5 mph - N/A   Overcast
7:07 PM 50.0 °F - 50.0 °F 100% 29.97 in 1.0 mi South 5.8 mph - N/A   Overcast
7:28 PM 50.0 °F - 50.0 °F 100% 29.96 in 0.8 mi SSE 5.8 mph - N/A   Overcast
7:49 PM 50.0 °F - 50.0 °F 100% 29.98 in 0.5 mi Calm Calm - N/A   Overcast
8:10 PM 50.0 °F - 50.0 °F 100% 29.98 in 0.2 mi SSE 3.5 mph - N/A   Overcast
8:32 PM 50.0 °F - 50.0 °F 100% 29.99 in 0.2 mi South 3.5 mph - N/A   Overcast
8:53 PM 50.0 °F - 50.0 °F 100% 29.99 in 0.2 mi SSE 5.8 mph - N/A   Overcast
9:14 PM 50.0 °F - 50.0 °F 100% 29.99 in 0.2 mi SE 4.6 mph - N/A   Overcast
9:36 PM 50.0 °F - 50.0 °F 100% 30.00 in 0.2 mi South 5.8 mph - N/A   Overcast
9:57 PM 50.0 °F - 50.0 °F 100% 30.00 in 0.2 mi Calm Calm - N/A   Overcast
10:18 PM 50.0 °F - 50.0 °F 100% 30.00 in 0.2 mi Calm Calm - N/A   Overcast
10:39 PM 50.0 °F - 50.0 °F 100% 30.01 in 0.2 mi Calm Calm - N/A   Overcast
11:22 PM 50.0 °F - 50.0 °F 100% 30.02 in 0.2 mi Calm Calm - N/A   Overcast
11:43 PM 48.2 °F - 48.2 °F 100% 30.03 in 0.2 mi Calm Calm - N/A   Overcast